Weather in Tokarivka

Ukraine / Mykolaiv District     47°18′16″N   31°01′11″E
temp.,
°C
wind,
m/s
gust,
m/s
humid.,
%
clouds,
%
prec.,
mm/h
press.,
hPa
HPBL,
m
3 march, wed
wed323:00+2nnw5128988 0.0 1024581
02:00+3nnw7118094 0.0 1026903
05:00+2nw6127396 0.0 1026381
08:00+3nnw6127648 0.0 1028560
11:00+6nnw68640 0.0 1029907
14:00+8nnw56540 0.0 10281124
17:00+7nnw346164 0.0 1028320
20:00+4n117282 0.0 102822
4 march, thu
thu423:00+3ssw23758 0.0 102726
02:00+2sw34764 0.0 102648
05:00+1sw34750 0.0 102360
08:00+4ssw510740 0.0 1022292
11:00+9sw710660 0.0 1019583
14:00+12sw7105515 0.0 1016886
17:00+11sw496147 0.0 1014333
20:00+7sw347632 0.0 101377
5 march, fri
fri523:00+6ssw34800 0.0 101346
02:00+6ssw338046 0.0 101343
05:00+5ssw238299 0.0 101127
08:00+6s238176 0.0 1011110
11:00+10sw2358100 0.0 1009344
14:00+14w454496 0.0 1008895
17:00+12nw235360 0.0 100961
20:00+6n6108379 0.0 1012459
6 march, sat
sat623:00+4n71084100 0.1 1015629
02:00+2n6977100 0.1 1018736
05:000n5107752 0.0 1019565
08:00+1n586749 0.0 1021699
11:00+3n6844100 0.0 10231438
14:00+4nnw6841100 0.0 10231949
17:00+3nnw6839100 0.0 10242302
20:000nnw495480 0.1 1027302
7 march, sun
sun723:00−1nw49570 0.0 1029410
02:00−2nw37580 0.0 1029346
05:00−2wnw36600 0.0 1029222
08:00−1w45460 0.0 1029487
11:00+2w57320 0.0 10271415
14:00+4wsw68310 0.0 10241426
17:00+3wsw58430 0.0 10211123
20:000sw36560 0.0 102198